Location: Asheville, NC
(35.6000°N, 82.5500°W)
Time: 07:03:42
(UTC-05:00)

Vanguard 1 - Pass Details

Date: 17 February 2018
Orbit: 650 x 3833 km, 34.2° (Epoch: 19 February)

Event Time Altitude Azimuth Distance (km) Brightness Sun altitude
Rises 20:02:11 0° 277° (W) 3,755 14.5 -22.6°
Reaches altitude 10° 20:05:16 10° 274° (W) 2,496 13.3 -23.2°
Maximum altitude 20:10:32 56° 196° (SSW) 816 9.6 -24.3°
Enters shadow 20:11:02 53° 169° (S) 833 9.5 -24.4°
Drops below altitude 10° 20:14:49 10° 118° (ESE) 2,037 - -25.1°
Sets 20:17:06 0° 113° (ESE) 2,990 - -25.6°
